Location: *
(33.8649°S, 62.1526°E)
Time: 17:53:58
(UTC+00:00)

Cosmos 44 Rocket - Pass Details

Date: 06 December 2021
Orbit: 648 x 741 km, 65.1° (Epoch: 23 January)

Event Time Altitude Azimuth Distance (km) Brightness Sun altitude
Exits shadow 17:19:52 55° 317° (NW) 786 3.4 -24.1°
Maximum altitude 17:20:51 80° 242° (WSW) 670 3.2 -24.2°
Drops below altitude 10° 17:25:35 10° 154° (SSE) 2,092 6.1 -24.8°
Sets 17:27:56 0° 152° (SSE) 3,020 7.0 -25.1°
